User: anonymous   Login
Location: Unspecified
(0.0000°N, 0.0000°E)
Time: 22:20:59
(UTC+00:00)
Language:

FLOCK 4BE 5 - Orbit

View from above orbital plane
View from above orbital plane
View from above satellite
View from above satellite

Ground track
Ground track

The orbit is defined by the following mean orbital elements,

1 60559U          26145.21932794 +.00000000 +00000-0 +38779-3 0 00000
2 60559  97.3841 229.0107 0003500  47.1423 313.0116 15.39523950    06
Epoch (UTC): 25 May 2026 05:15:49
Eccentricity: 0.0003500
inclination: 97.3841°
perigee height: 445 km
apogee height: 450 km
right ascension of ascending node: 229.0107°
argument of perigee: 47.1423°
revolutions per day: 15.39523950
mean anomaly at epoch: 313.0116°

The dashed part of the orbit path shows where the satellite is in the earth's shadow,  

DLR